Location: Binningen
(47.7924°N, 8.7261°E)
Time: 04:45:21
(UTC+00:00)

Cosmos 2218 Rocket - Pass Details

Date: 17 May 2021
Orbit: 957 x 1005 km, 82.9° (Epoch: 14 June)

Event Time Altitude Azimuth Distance (km) Brightness Sun altitude
Rises 21:18:46 0° 352° (N) 3,700 8.3 -17.3°
Reaches altitude 10° 21:21:18 10° 355° (N) 2,755 7.4 -17.5°
Maximum altitude 21:27:37 68° 79° (ENE) 1,071 4.1 -18.0°
Enters shadow 21:30:57 30° 154° (SSE) 1,721 4.7 -18.3°
